User: anonymous   Login
Location: Walnut Point State Park
(39.6958°N, 88.0345°W)
Time: 00:06:58
(UTC-05:00)
Language:

Iridium 75 - Orbit

View from above orbital plane
View from above orbital plane
View from above satellite
View from above satellite

Ground track
Ground track

The orbit data is extracted from the following two-line orbital elements,

1 25346U 98032E   15143.57048204  .00000025  00000-0  18920-5 0  9998
2 25346 086.3982 179.9501 0002302 092.4606 074.2431 14.34215795891363
Epoch (UTC): 23 May 2015 13:41:29
Eccentricity: 0.0002302
inclination: 86.3982°
perigee height: 776 km
apogee height: 779 km
right ascension of ascending node: 179.9501°
argument of perigee: 92.4606°
revolutions per day: 14.34215795
mean anomaly at epoch: 74.2431°
orbit number at epoch: 89136

The dashed part of the orbit path shows where the satellite is in the earth's shadow,  

DLR